This is the latest recevied weather packets stored in our database for station/object N1MCJ. If no packets are shown the sender has not sent any weather packets the latest 10 day(s).
| Time | Temp. | Humidity | Pressure | Rain* | Wind** | Luminosity | Snow |
|---|---|---|---|---|---|---|---|
| 1777620905 | 6.11° C | 76% | 1001.6 hPa | 0 mm | - | 0 W/m² | - |
| 1777620005 | 6.11° C | 77% | 1001.6 hPa | 0 mm | - | 0 W/m² | - |
| 1777619101 | 6.67° C | 75% | 1001.6 hPa | 0 mm | - | 0 W/m² | - |
| 1777618200 | 6.67° C | 74% | 1001.4 hPa | 0 mm | - | 0 W/m² | - |
| 1777617294 | 7.22° C | 72% | 1001.1 hPa | 0 mm | - | 0 W/m² | - |
| 1777616393 | 7.22° C | 75% | 1001.1 hPa | 0 mm | - | 0 W/m² | - |
| 1777615490 | 7.22° C | 73% | 1001.1 hPa | 0 mm | - | 0 W/m² | - |
| 1777614588 | 7.22° C | 74% | 1001.1 hPa | 0 mm | - | 0 W/m² | - |
| 1777613687 | 7.22° C | 75% | 1001 hPa | 0 mm | - | 0 W/m² | - |
| 1777612783 | 7.78° C | 76% | 1001 hPa | 0 mm | - | 0 W/m² | - |
| 1777611881 | 7.22° C | 81% | 1001.2 hPa | 0 mm | - | 0 W/m² | - |
| 1777610977 | 7.22° C | 83% | 1001.2 hPa | 0 mm | - | 0 W/m² | - |
| 1777610074 | 7.22° C | 85% | 1001.3 hPa | 0 mm | - | 0 W/m² | - |
| 1777609171 | 7.78° C | 84% | 1001.3 hPa | 0 mm | - | 0 W/m² | - |
| 1777608268 | 7.78° C | 86% | 1001 hPa | 0 mm | - | 0 W/m² | - |
| 1777607364 | 7.78° C | 88% | 1000.9 hPa | 0 mm | - | 0 W/m² | - |
| 1777606463 | 7.22° C | 97% | 1000.9 hPa | 0 mm | - | 0 W/m² | - |
| 1777605560 | 7.22° C | 99% | 1000.7 hPa | 0 mm | - | 0 W/m² | - |
| 1777604660 | 7.78° C | 99% | 1000.5 hPa | 0 mm | - | 0 W/m² | - |
| 1777603760 | 7.78° C | 99% | 1000.4 hPa | 0 mm | - | 0 W/m² | - |
| 1777602859 | 7.22° C | 99% | 1000.5 hPa | 0 mm | - | 0 W/m² | - |
| 1777601957 | 7.78° C | 99% | 1000.4 hPa | 0 mm | - | 0 W/m² | - |
| 1777601056 | 7.78° C | 99% | 1000 hPa | 0 mm | - | 0 W/m² | - |
| 1777600156 | 8.33° C | 99% | 999.9 hPa | 0 mm | - | 0 W/m² | - |
| 1777599250 | 8.33° C | 99% | 999.8 hPa | 0 mm | - | 0 W/m² | - |
* Rain latest hour (hover to see other rain measurements)
** Current wind speed in m/s (hover to see current wind gust speed)